Flag for Switzerland Weather past 2 weeks in Stäfa, Zurich, Switzerland

Now
68 °F

Mild.


Feels Like: 68 °F
Forecast: 40 / 53 °F
Wind: 5 mph from East

Location: Zurich Town / Ville.

Current Time: Apr 27, 2015 at 6:21:18 PM

Latest Report: Apr 27, 2015 at 5:00 PM


Visibility: N/A

Pressure: 29.44 "Hg

Humidity: 51%

Dew point: 49 °F

Location of StäfaLocation

Historic Weather in Stäfa — Graph

°F

Stäfa temperature yesterday

Maximum temperature yesterday: 67 °F (at 6:00 PM)
Minimum temperature yesterday: 48 °F (at 7:00 AM)
Average temperature yesterday: 57 °F

Past Weeks' High & Low Weather Summary

 TemperatureHumidityPressure
High72 °F (Apr 15, 5:00 PM)96% (Apr 17, 10:00 PM)30.47 "Hg (Apr 17, 10:00 PM)
Low36 °F (Apr 19, 7:00 AM)19% (Apr 22, 7:00 PM)29.44 "Hg (Apr 27, 4:00 PM)
Average55 °F57%30.09 "Hg
* Reported Apr 12 5:00 PM — Apr 27 5:00 PM, Stäfa, Weather by CustomWeather, © 2015

Note: Actual official high and low records may vary slightly from our data, if they occured in-between our weather recording intervals... More about our weather records

Advertising

Stäfa weather history for previous 24 hours

 ConditionsComfort  
Time TempWeatherWind HumidityBarometerVisibility
5:00 PM
Mon, Apr 27
68 °FMild.5 mph51%29.44 "HgN/A
4:00 PM67 °FMild.5 mph58%29.44 "HgN/A
3:00 PM65 °FMild.5 mph58%29.47 "HgN/A
2:00 PM64 °FOvercast.5 mph61%29.50 "HgN/A
1:00 PM62 °FCool.6 mph62%29.53 "HgN/A
12:00 PM62 °FCool.3 mph66%29.55 "HgN/A
11:00 AM58 °FCool.2 mph75%29.58 "HgN/A
10:00 AM57 °FCool.3 mph73%29.58 "HgN/A
9:00 AM56 °FCool.2 mph79%29.59 "HgN/A
8:00 AM53 °FCool.2 mph88%29.60 "HgN/A
7:00 AM52 °FCool.No wind89%29.61 "HgN/A
6:00 AM51 °FCool.1 mph91%29.61 "HgN/A
5:00 AM52 °FCool.1 mph90%29.62 "HgN/A
4:00 AM53 °FCool.2 mph84%29.62 "HgN/A
3:00 AM55 °FCool.3 mph79%29.63 "HgN/A
2:00 AM53 °FCool.2 mph89%29.65 "HgN/A
1:00 AM54 °FCool.1 mph87%29.65 "HgN/A
12:00 AM56 °FCool.1 mph79%29.65 "HgN/A
10:00 PM
Sun, Apr 26
61 °FCool.8 mph67%29.65 "HgN/A
9:00 PM60 °FCool.3 mph68%29.66 "HgN/A
8:00 PM63 °FPartly sunny.3 mph62%29.64 "HgN/A
7:00 PM65 °FMild.3 mph56%29.62 "HgN/A
6:00 PM67 °FMild.6 mph52%29.63 "HgN/A
Weather by CustomWeather, © 2015

See weather overviewHow to use our weather pages